Location: Fernhill
(41.0167°S, 175.6333°E)
Time: 01:24:52
(UTC+00:00)

CZ-4B R/B - Pass Details

Date: 08 November 2025
Orbit: 464 x 570 km, 97.8° (Epoch: 13 December)

Event Time Altitude Azimuth Distance (km) Brightness Sun altitude
Rises 08:29:49 0° 168° (SSE) 2,794 7.8 -14.4°
Reaches altitude 10° 08:31:58 10° 167° (SSE) 1,899 6.9 -14.7°
Maximum altitude 08:36:07 87° 79° (E) 588 3.8 -15.3°
Drops below altitude 10° 08:40:14 10° 347° (NNW) 1,888 6.3 -15.9°
Enters shadow 08:40:53 - 347° (NNW) 2,156 6.6 -16.0°
